• Em Portugal
  • Lista de países
  • Para 7 dias
  • Temperatura da água
  • Mapas de satélite
  • Mapa do tempo
  • Widgets de tempo
  • user-avatar
    Iniciar Sessão

    Previsão horária em Kirish

    Hoje, 23 Outubro, Segunda-feira

    Tempo Temperatura Precipitação Vento Pressão Humidade
    00:00 +18°C° 0 mm 1 m/s 734 mmHg 68%
    01:00 +18°C° 0 mm 1 m/s 734 mmHg 68%
    02:00 +18°C° 0 mm 1 m/s 733 mmHg 68%
    03:00 +18°C° 0 mm 1 m/s 733 mmHg 68%
    04:00 +16°C° 0 mm 1 m/s 733 mmHg 67%
    05:00 +16°C° 0 mm 1 m/s 733 mmHg 67%
    06:00 +19°C° 0 mm 1 m/s 733 mmHg 61%
    07:00 +20°C° 0 mm 1 m/s 733 mmHg 56%
    08:00 +22°C° 0 mm 1 m/s 733 mmHg 50%
    09:00 +23°C° 0 mm 1 m/s 733 mmHg 45%
    10:00 +24°C° 0 mm 2 m/s 733 mmHg 41%
    11:00 +25°C° 0 mm 2 m/s 733 mmHg 36%
    12:00 +25°C° 0 mm 3 m/s 733 mmHg 38%
    13:00 +25°C° 0 mm 3 m/s 732 mmHg 40%
    14:00 +26°C° 0 mm 3 m/s 732 mmHg 41%
    15:00 +24°C° 0 mm 3 m/s 732 mmHg 50%
    16:00 +22°C° 0 mm 3 m/s 732 mmHg 58%
    17:00 +20°C° 0 mm 2 m/s 732 mmHg 66%
    18:00 +20°C° 0 mm 2 m/s 732 mmHg 72%
    19:00 +19°C° 0 mm 2 m/s 732 mmHg 78%
    20:00 +19°C° 0 mm 1 m/s 732 mmHg 84%
    21:00 +19°C° 0 mm 1 m/s 732 mmHg 83%
    22:00 +19°C° 0 mm 1 m/s 732 mmHg 82%
    23:00 +17°C° 0 mm 2 m/s 732 mmHg 81%

    Amanhã, 24 Outubro, Terça-feira

    Tempo Temperatura Precipitação Vento Pressão Humidade
    00:00 +17°C° 0,1 mm 2 m/s 732 mmHg 80%
    01:00 +17°C° 0,1 mm 2 m/s 732 mmHg 78%
    02:00 +17°C° 0,1 mm 2 m/s 732 mmHg 77%
    03:00 +17°C° 0,1 mm 2 m/s 731 mmHg 77%
    04:00 +17°C° 0,1 mm 2 m/s 731 mmHg 77%
    05:00 +17°C° 0,1 mm 2 m/s 731 mmHg 77%
    06:00 +18°C° 0,1 mm 2 m/s 731 mmHg 77%
    07:00 +18°C° 0,1 mm 2 m/s 731 mmHg 76%
    08:00 +18°C° 0,1 mm 3 m/s 731 mmHg 75%
    09:00 +19°C° 0,2 mm 3 m/s 731 mmHg 73%
    10:00 +19°C° 0,2 mm 3 m/s 731 mmHg 71%
    11:00 +20°C° 0,2 mm 4 m/s 731 mmHg 70%
    12:00 +20°C° 1,2 mm 4 m/s 731 mmHg 72%
    13:00 +19°C° 1,2 mm 4 m/s 731 mmHg 74%
    14:00 +19°C° 1,2 mm 4 m/s 731 mmHg 76%
    15:00 +19°C° 2,5 mm 4 m/s 730 mmHg 79%
    16:00 +18°C° 2,5 mm 3 m/s 730 mmHg 83%
    17:00 +18°C° 2,5 mm 3 m/s 730 mmHg 87%
    18:00 +18°C° 2 mm 3 m/s 731 mmHg 88%
    19:00 +18°C° 2 mm 3 m/s 731 mmHg 89%
    20:00 +18°C° 2 mm 3 m/s 731 mmHg 90%
    21:00 +18°C° 4,3 mm 4 m/s 731 mmHg 89%
    22:00 +18°C° 4,3 mm 4 m/s 731 mmHg 89%
    23:00 +18°C° 4,3 mm 4 m/s 732 mmHg 88%

    Depois de amanhã, 25 Outubro, Quarta-feira

    Tempo Temperatura Precipitação Vento Pressão Humidade
    00:00 +18°C° 3,8 mm 4 m/s 732 mmHg 89%
    01:00 +18°C° 3,8 mm 3 m/s 732 mmHg 89%
    02:00 +18°C° 3,8 mm 3 m/s 732 mmHg 90%
    03:00 +18°C° 2,5 mm 3 m/s 732 mmHg 90%
    04:00 +17°C° 2,5 mm 3 m/s 732 mmHg 90%
    05:00 +17°C° 2,5 mm 3 m/s 732 mmHg 89%
    06:00 +18°C° 0,9 mm 3 m/s 733 mmHg 87%
    07:00 +18°C° 0,9 mm 3 m/s 733 mmHg 85%
    08:00 +18°C° 0,9 mm 3 m/s 734 mmHg 83%
    09:00 +19°C° 0,5 mm 3 m/s 734 mmHg 78%
    10:00 +20°C° 0,5 mm 3 m/s 734 mmHg 73%
    11:00 +20°C° 0,5 mm 3 m/s 735 mmHg 67%
    12:00 +20°C° 0,5 mm 3 m/s 735 mmHg 66%
    13:00 +20°C° 0,5 mm 3 m/s 735 mmHg 65%
    14:00 +20°C° 0,5 mm 3 m/s 735 mmHg 64%
    15:00 +19°C° 0,6 mm 2 m/s 735 mmHg 68%
    16:00 +19°C° 0,6 mm 2 m/s 735 mmHg 72%
    17:00 +18°C° 0,6 mm 2 m/s 735 mmHg 76%
    18:00 +17°C° 0,5 mm 2 m/s 736 mmHg 78%
    19:00 +18°C° 0,5 mm 1 m/s 736 mmHg 80%
    20:00 +16°C° 0,5 mm 1 m/s 737 mmHg 82%
    21:00 +16°C° 0,3 mm 1 m/s 737 mmHg 82%
    22:00 +16°C° 0,3 mm 1 m/s 737 mmHg 82%
    23:00 +16°C° 0,3 mm 1 m/s 737 mmHg 83%

    26 Outubro, Quinta-feira

    Tempo Temperatura Precipitação Vento Pressão Humidade
    00:00 +15°C° 0,2 mm 1 m/s 737 mmHg 83%
    01:00 +15°C° 0,2 mm 1 m/s 737 mmHg 82%
    02:00 +15°C° 0,2 mm 1 m/s 738 mmHg 82%
    03:00 +15°C° 0 mm 1 m/s 738 mmHg 82%
    04:00 +15°C° 0 mm 1 m/s 738 mmHg 82%
    05:00 +14°C° 0 mm 1 m/s 738 mmHg 81%
    06:00 +15°C° 0 mm 1 m/s 738 mmHg 76%
    07:00 +16°C° 0 mm 1 m/s 739 mmHg 72%
    08:00 +18°C° 0 mm 1 m/s 739 mmHg 67%
    09:00 +19°C° 0 mm 1 m/s 739 mmHg 61%
    10:00 +21°C° 0 mm 1 m/s 739 mmHg 55%
    11:00 +22°C° 0 mm 1 m/s 739 mmHg 49%
    12:00 +22°C° 0 mm 1 m/s 739 mmHg 48%
    13:00 +23°C° 0 mm 1 m/s 738 mmHg 46%
    14:00 +23°C° 0 mm 1 m/s 738 mmHg 45%
    15:00 +22°C° 0 mm 1 m/s 738 mmHg 49%
    16:00 +21°C° 0 mm 1 m/s 738 mmHg 53%
    17:00 +20°C° 0 mm 1 m/s 738 mmHg 58%
    18:00 +20°C° 0 mm 1 m/s 738 mmHg 60%
    19:00 +19°C° 0 mm 1 m/s 738 mmHg 61%
    20:00 +18°C° 0 mm 1 m/s 739 mmHg 63%
    21:00 +18°C° 0 mm 1 m/s 739 mmHg 64%
    22:00 +18°C° 0 mm 1 m/s 739 mmHg 64%
    23:00 +18°C° 0 mm 1 m/s 739 mmHg 64%

    27 Outubro, Sexta-feira

    Tempo Temperatura Precipitação Vento Pressão Humidade
    00:00 +16°C° 0 mm 1 m/s 739 mmHg 65%
    01:00 +16°C° 0 mm 1 m/s 738 mmHg 66%
    02:00 +16°C° 0 mm 1 m/s 738 mmHg 67%
    03:00 +16°C° 0 mm 2 m/s 738 mmHg 69%
    04:00 +15°C° 0 mm 2 m/s 738 mmHg 70%
    05:00 +15°C° 0 mm 2 m/s 738 mmHg 72%
    06:00 +16°C° 0 mm 2 m/s 738 mmHg 69%
    07:00 +18°C° 0 mm 1 m/s 738 mmHg 66%
    08:00 +19°C° 0 mm 1 m/s 738 mmHg 63%
    09:00 +20°C° 0 mm 1 m/s 738 mmHg 56%
    10:00 +22°C° 0 mm 1 m/s 738 mmHg 50%
    11:00 +23°C° 0 mm 1 m/s 738 mmHg 43%
    12:00 +23°C° 0 mm 1 m/s 737 mmHg 42%
    13:00 +24°C° 0 mm 1 m/s 736 mmHg 41%
    14:00 +24°C° 0 mm 1 m/s 736 mmHg 39%
    15:00 +23°C° 0 mm 1 m/s 735 mmHg 44%
    16:00 +21°C° 0 mm 1 m/s 735 mmHg 48%
    17:00 +20°C° 0 mm 1 m/s 735 mmHg 52%
    18:00 +19°C° 0 mm 1 m/s 735 mmHg 55%
    19:00 +19°C° 0 mm 1 m/s 735 mmHg 58%
    20:00 +18°C° 0 mm 1 m/s 735 mmHg 61%
    21:00 +18°C° 0 mm 1 m/s 735 mmHg 62%
    22:00 +16°C° 0 mm 1 m/s 735 mmHg 63%
    23:00 +16°C° 0 mm 1 m/s 734 mmHg 64%

    28 Outubro, Sábado

    Tempo Temperatura Precipitação Vento Pressão Humidade
    00:00 +15°C° 0 mm 1 m/s 734 mmHg 64%
    01:00 +15°C° 0 mm 1 m/s 734 mmHg 64%
    02:00 +15°C° 0 mm 1 m/s 734 mmHg 64%
    03:00 +15°C° 0 mm 1 m/s 733 mmHg 64%
    04:00 +14°C° 0 mm 1 m/s 733 mmHg 64%
    05:00 +14°C° 0 mm 1 m/s 733 mmHg 63%
    06:00 +15°C° 0 mm 1 m/s 733 mmHg 59%
    07:00 +16°C° 0 mm 1 m/s 733 mmHg 55%
    08:00 +18°C° 0 mm 1 m/s 734 mmHg 51%
    09:00 +19°C° 0 mm 1 m/s 734 mmHg 49%
    10:00 +20°C° 0 mm 2 m/s 734 mmHg 47%
    11:00 +21°C° 0 mm 2 m/s 733 mmHg 44%
    12:00 +21°C° 0 mm 2 m/s 733 mmHg 44%
    13:00 +21°C° 0 mm 2 m/s 733 mmHg 44%
    14:00 +21°C° 0 mm 2 m/s 732 mmHg 44%
    15:00 +20°C° 0 mm 2 m/s 732 mmHg 51%
    16:00 +19°C° 0 mm 2 m/s 732 mmHg 57%
    17:00 +18°C° 0 mm 2 m/s 732 mmHg 63%
    18:00 +18°C° 0 mm 1 m/s 733 mmHg 68%
    19:00 +18°C° 0 mm 1 m/s 733 mmHg 72%
    20:00 +16°C° 0 mm 1 m/s 733 mmHg 76%
    21:00 +16°C° 0 mm 1 m/s 734 mmHg 77%
    22:00 +16°C° 0 mm 1 m/s 734 mmHg 77%
    23:00 +15°C° 0 mm 1 m/s 734 mmHg 78%

    29 Outubro, Domingo

    Tempo Temperatura Precipitação Vento Pressão Humidade
    00:00 +15°C° 0 mm 1 m/s 734 mmHg 78%
    01:00 +15°C° 0 mm 1 m/s 734 mmHg 78%
    02:00 +15°C° 0 mm 1 m/s 733 mmHg 78%
    03:00 +15°C° 0 mm 1 m/s 733 mmHg 79%
    04:00 +15°C° 0 mm 1 m/s 733 mmHg 81%
    05:00 +15°C° 0 mm 1 m/s 733 mmHg 82%
    06:00 +16°C° 0,1 mm 2 m/s 733 mmHg 81%
    07:00 +16°C° 0,1 mm 2 m/s 733 mmHg 80%
    08:00 +17°C° 0,1 mm 2 m/s 733 mmHg 80%
    09:00 +17°C° 0,3 mm 2 m/s 733 mmHg 81%
    10:00 +17°C° 0,3 mm 3 m/s 733 mmHg 82%
    11:00 +18°C° 0,3 mm 3 m/s 733 mmHg 83%
    12:00 +18°C° 0,9 mm 3 m/s 732 mmHg 85%
    13:00 +18°C° 0,9 mm 3 m/s 732 mmHg 87%
    14:00 +18°C° 0,9 mm 4 m/s 732 mmHg 89%
    15:00 +18°C° 1 mm 4 m/s 731 mmHg 89%
    16:00 +18°C° 1 mm 4 m/s 731 mmHg 89%
    17:00 +19°C° 1 mm 4 m/s 731 mmHg 89%
    18:00 +18°C° 0,5 mm 4 m/s 731 mmHg 89%
    19:00 +18°C° 0,5 mm 4 m/s 731 mmHg 90%
    20:00 +18°C° 0,5 mm 4 m/s 731 mmHg 90%
    21:00 +17°C° 0,5 mm 5 m/s 731 mmHg 90%
    22:00 +17°C° 0,5 mm 5 m/s 731 mmHg 90%
    23:00 +17°C° 0,5 mm 5 m/s 730 mmHg 89%
    Mostrar mais